GW2464 Weather Reports


Display with metric or nautical units.
time (UTC)temp
F
wind
direction
speed
MPH
gust
MPH
rain 1hr
in
rain 24hr
in
rain mn
in
humidity
%
barometer
mb
20260901012156 65 14 0.0 0.0 0.00 0.21 0.21 99 1020.0
20260901011651 65 19 0.0 0.0 0.00 0.21 0.21 99 1019.8
20260901011150 65 14 0.0 0.0 0.00 0.21 0.21 99 1020.0
20260901010645 65 10 0.0 0.0 0.00 0.21 0.21 99 1019.6
20260901010145 65 13 0.0 0.0 0.00 0.21 0.21 99 1019.5
20260901005644 65 14 0.0 0.0 0.00 0.21 0.21 99 1019.6
20260901005140 65 14 0.0 0.0 0.00 0.21 0.21 99 1019.5
20260901004639 65 20 0.0 0.0 0.00 0.21 0.21 99 1019.7
20260901004134 65 11 0.0 0.0 0.00 0.21 0.21 99 1019.3
20260901003629 65 9 0.0 0.0 0.00 0.21 0.21 99 1019.6
20260901003127 65 9 0.0 0.0 0.00 0.21 0.21 99 1019.6
20260901002622 65 15 0.0 0.0 0.00 0.21 0.21 99 1019.6
20260901002116 65 19 0.0 0.0 0.00 0.21 0.21 99 1019.7
20260901001606 65 20 0.0 0.0 0.00 0.21 0.21 99 1019.7
20260901001101 65 13 0.0 0.0 0.00 0.21 0.21 99 1019.6
20260901000555 65 13 0.0 0.0 0.00 0.21 0.21 99 1019.8
20260901000051 65 21 0.0 0.0 0.00 0.21 0.21 99 1019.7
20260831235544 65 22 0.0 0.0 0.00 0.21 0.21 99 1019.8
20260831235040 65 14 0.0 0.0 0.00 0.21 0.21 99 1019.9
20260831234534 65 30 0.0 0.0 0.00 0.21 0.21 99 1019.9
20260831234031 66 15 0.0 0.0 0.00 0.21 0.21 99 1019.8
20260831233525 66 23 0.0 0.0 0.00 0.21 0.21 99 1019.8
20260831233021 66 20 0.0 0.0 0.00 0.21 0.21 99 1019.8
20260831232516 66 22 0.0 0.0 0.00 0.21 0.21 99 1019.8
20260831232012 66 14 0.0 0.0 0.00 0.21 0.21 99 1019.8
20260831231508 66 16 0.0 0.0 0.00 0.21 0.21 99 1020.0
20260831231003 66 18 0.0 0.0 0.00 0.21 0.21 99 1019.9
20260831230458 66 14 0.0 0.0 0.00 0.21 0.21 99 1019.8
20260831225953 66 14 0.0 0.0 0.05 0.21 0.21 99 1020.1
20260831225449 66 15 0.0 0.0 0.05 0.21 0.21 99 1020.1
20260831224943 66 16 0.0 0.0 0.00 0.20 0.20 99 1020.2
20260831224443 66 20 0.0 0.0 0.00 0.20 0.20 99 1020.2
20260831223938 66 20 0.0 0.0 0.00 0.20 0.20 99 1020.4
20260831223434 66 20 0.0 0.0 0.00 0.20 0.20 99 1020.2
20260831222930 66 20 0.0 0.0 0.00 0.20 0.20 99 1020.1
20260831222426 66 20 0.0 0.0 0.00 0.20 0.20 99 1020.4
20260831221925 66 13 0.0 0.0 0.00 0.20 0.20 99 1020.2
20260831221422 0 0.0 0.0 0.00 0.00 0.00 1020.4
20260831220917 0 0.0 0.0 0.00 0.00 0.00 1020.3
20260831220413 0 0.0 0.0 0.00 0.00 0.00 1020.4
20260831215908 0 0.0 0.0 0.00 0.00 0.00 1020.5
20260831215403 0 0.0 0.0 0.00 0.00 0.00 1020.3
20260831214859 0 0.0 0.0 0.00 0.00 0.00 1020.2
20260831214357 0 0.0 0.0 0.00 0.00 0.00 1020.2
20260831213852 0 0.0 0.0 0.00 0.00 0.00 1020.3
20260831213349 0 0.0 0.0 0.00 0.00 0.00 1020.1
20260831212843 0 0.0 0.0 0.00 0.00 0.00 1020.3
20260831212340 66 20 0.0 0.0 0.00 0.20 0.20 99 1020.3
20260831211839 66 20 0.0 0.0 0.00 0.20 0.20 99 1020.4
20260831211334 66 13 0.0 0.0 0.12 0.20 0.20 99 1020.5
20260831210833 66 13 0.0 0.0 0.12 0.20 0.20 99 1020.5
20260831210330 0 0.0 0.0 0.00 0.00 0.00 1020.5
20260831205829 0 0.0 0.0 0.00 0.00 0.00 1020.5
20260831205325 66 5 0.0 0.0 0.00 0.18 0.18 99 1020.5
20260831204820 66 5 0.0 0.0 0.00 0.18 0.18 99 1020.7
20260831204319 66 5 0.0 0.0 0.00 0.18 0.18 99 1020.4
20260831203818 66 19 0.0 0.0 0.00 0.18 0.18 99 1020.3
20260831203313 0 0.0 0.0 0.00 0.00 0.00 1020.6
20260831202811 0 0.0 0.0 0.00 0.00 0.00 1020.5
20260831202306 0 0.0 0.0 0.00 0.00 0.00 1020.4
20260831201800 0 0.0 0.0 0.00 0.00 0.00 1020.8
20260831201259 0 0.0 0.0 0.00 0.00 0.00 1020.7
20260831200755 0 0.0 0.0 0.00 0.00 0.00 1020.8
20260831200250 0 0.0 0.0 0.00 0.00 0.00 1020.8
20260831195745 0 0.0 0.0 0.00 0.00 0.00 1020.9
20260831195241 0 0.0 0.0 0.00 0.00 0.00 1020.8
20260831194730 0 0.0 0.0 0.00 0.00 0.00 1021.0
20260831194226 0 0.0 0.0 0.00 0.00 0.00 1020.9
20260831193719 0 0.0 0.0 0.00 0.00 0.00 1021.1
20260831193214 65 27 0.0 0.0 0.00 0.18 0.18 99 1021.0
20260831192710 65 27 0.0 0.0 0.00 0.18 0.18 99 1021.0
20260831192205 65 14 0.0 0.0 0.00 0.18 0.18 99 1021.4
20260831191701 65 348 0.0 1.0 0.00 0.18 0.18 99 1021.3
20260831191157 65 24 0.0 0.0 0.00 0.18 0.18 99 1021.3
20260831190651 65 24 0.0 0.0 0.00 0.18 0.18 99 1021.5
20260831190151 65 24 0.0 0.0 0.00 0.18 0.18 99 1021.4
20260831185646 65 50 0.0 1.0 0.00 0.18 0.18 99 1021.7
20260831185141 65 16 0.0 0.0 0.00 0.18 0.18 99 1021.7
20260831184635 65 16 0.0 0.0 0.00 0.18 0.18 99 1021.5
20260831184131 65 16 0.0 0.0 0.00 0.18 0.18 99 1022.1
20260831183630 65 9 0.0 0.0 0.07 0.18 0.18 99 1022.0
20260831183129 65 9 0.0 0.0 0.12 0.18 0.18 99 1022.0
20260831182624 65 27 0.0 1.0 0.66 0.17 0.17 99 1021.8
20260831182120 65 3 0.0 0.0 0.66 0.16 0.16 99 1022.0
20260831181619 65 21 0.0 0.0 0.05 0.06 0.06 99 1022.0
20260831181114 0 0.0 0.0 0.00 0.00 0.00 1022.3
20260831180609 0 0.0 0.0 0.00 0.00 0.00 1022.1
20260831180104 0 0.0 0.0 0.00 0.00 0.00 1022.2
20260831175559 0 0.0 0.0 0.00 0.00 0.00 1022.2
20260831175056 0 0.0 0.0 0.00 0.00 0.00 1022.2
20260831174550 0 0.0 0.0 0.00 0.00 0.00 1022.0
20260831174050 0 0.0 0.0 0.00 0.00 0.00 1022.1
20260831173548 0 0.0 0.0 0.00 0.00 0.00 1022.3
20260831173045 0 0.0 0.0 0.00 0.00 0.00 1022.2
20260831172539 66 11 0.0 0.0 0.12 0.05 0.05 98 1022.2
20260831172034 66 11 0.0 0.0 0.19 0.05 0.05 98 1022.2
20260831171530 66 35 0.0 0.0 0.19 0.03 0.03 97 1022.3
20260831171027 66 28 0.0 0.0 0.12 0.02 0.02 97 1022.4
20260831170523 67 37 1.0 1.0 0.00 0.00 0.00 95 1022.6
20260831170020 67 19 0.0 0.0 0.00 0.00 0.00 94 1022.6
20260831165520 67 28 0.0 0.0 0.00 0.00 0.00 92 1022.3
20260831165017 68 14 0.0 0.0 0.00 0.00 0.00 91 1022.6
20260831164513 68 25 0.0 0.0 0.00 0.00 0.00 93 1022.3
20260831164008 68 14 0.0 0.0 0.00 0.00 0.00 93 1022.4
20260831163509 68 8 0.0 1.0 0.00 0.00 0.00 92 1022.4
20260831163003 67 359 1.0 1.0 0.00 0.00 0.00 92 1022.4
20260831162457 67 356 1.0 1.0 0.00 0.00 0.00 92 1022.4
20260831161955 68 16 0.0 0.0 0.00 0.00 0.00 91 1022.5
20260831161452 68 33 0.0 0.0 0.00 0.00 0.00 91 1022.4
20260831160948 68 9 0.0 0.0 0.00 0.00 0.00 90 1022.4
20260831160447 68 354 1.0 1.0 0.00 0.00 0.00 90 1022.4
20260831155942 68 347 1.0 1.0 0.00 0.00 0.00 90 1022.6
20260831155437 68 22 0.0 0.0 0.00 0.00 0.00 89 1022.8
20260831154932 69 352 1.0 1.0 0.00 0.00 0.00 89 1022.7
20260831154429 68 12 1.0 2.0 0.00 0.00 0.00 89 1022.7
20260831153927 68 37 0.0 1.0 0.00 0.00 0.00 89 1022.5
20260831153423 68 3 0.0 0.0 0.00 0.00 0.00 90 1022.5
20260831152919 68 11 1.0 1.0 0.00 0.00 0.00 89 1022.5
20260831152415 68 24 0.0 1.0 0.00 0.00 0.00 91 1022.7
20260831151910 67 25 1.0 1.0 0.00 0.00 0.00 91 1022.5
20260831151408 67 2 1.0 1.0 0.00 0.00 0.00 91 1022.6
20260831150904 67 32 0.0 1.0 0.00 0.00 0.00 92 1022.7
20260831150359 67 10 1.0 1.0 0.00 0.00 0.00 91 1022.5
20260831145858 67 61 0.0 1.0 0.00 0.00 0.00 91 1022.5
20260831145355 67 23 0.0 1.0 0.00 0.00 0.00 92 1022.5
20260831144850 66 17 0.0 0.0 0.00 0.00 0.00 93 1022.4
20260831144346 66 43 1.0 1.0 0.00 0.00 0.00 92 1022.4
20260831143841 66 16 1.0 1.0 0.00 0.00 0.00 93 1022.6
20260831143336 66 14 2.0 2.0 0.00 0.00 0.00 91 1022.6
20260831142831 67 49 1.0 1.0 0.00 0.00 0.00 92 1022.4
20260831142326 67 57 1.0 1.0 0.00 0.00 0.00 92 1022.5
20260831141826 67 35 0.0 0.0 0.00 0.00 0.00 91 1022.6
20260831141320 66 18 0.0 0.0 0.00 0.00 0.00 92 1022.6
20260831140810 66 14 0.0 1.0 0.00 0.00 0.00 91 1022.5
20260831140304 66 1 0.0 0.0 0.00 0.00 0.00 90 1022.4
20260831135802 66 18 0.0 0.0 0.00 0.00 0.00 91 1022.8
20260831135258 66 4 1.0 1.0 0.00 0.00 0.00 91 1022.7
20260831134753 65 37 0.0 1.0 0.00 0.00 0.00 92 1022.6
20260831134250 66 22 0.0 1.0 0.00 0.00 0.00 91 1022.5
20260831133749 65 14 0.0 0.0 0.00 0.00 0.00 91 1022.8
20260831133249 66 34 0.0 0.0 0.00 0.00 0.00 91 1022.8
20260831132744 65 17 0.0 0.0 0.00 0.00 0.00 93 1022.7
20260831132239 66 24 0.0 0.0 0.00 0.00 0.00 93 1022.5
20260831131738 65 37 0.0 0.0 0.00 0.00 0.00 95 1022.4
20260831131235 64 24 0.0 1.0 0.00 0.00 0.00 96 1022.4
20260831130730 64 22 0.0 0.0 0.00 0.00 0.00 97 1022.4
20260831130225 63 27 0.0 0.0 0.00 0.00 0.00 98 1022.6
20260831125723 62 10 1.0 2.0 0.00 0.00 0.00 99 1022.7
20260831125221 62 17 0.0 1.0 0.00 0.00 0.00 99 1022.6
20260831124714 62 21 0.0 0.0 0.00 0.00 0.00 99 1022.5
20260831124211 62 21 0.0 0.0 0.00 0.00 0.00 99 1022.8
20260831123711 61 8 0.0 0.0 0.00 0.00 0.00 99 1023.0
20260831123209 61 14 0.0 0.0 0.00 0.00 0.00 99 1022.8
20260831122704 61 10 0.0 0.0 0.00 0.00 0.00 99 1023.0
20260831122200 61 4 0.0 0.0 0.00 0.00 0.00 99 1023.0
20260831121659 61 17 0.0 0.0 0.00 0.00 0.00 99 1022.8
20260831121155 60 20 0.0 0.0 0.00 0.00 0.00 99 1022.7
20260831120650 60 16 0.0 0.0 0.00 0.00 0.00 99 1022.7
20260831120145 60 30 0.0 0.0 0.00 0.00 0.00 99 1022.6
20260831115641 60 14 0.0 0.0 0.00 0.00 0.00 99 1022.7
20260831115137 60 20 0.0 0.0 0.00 0.00 0.00 99 1022.8
20260831114636 59 22 0.0 0.0 0.00 0.00 0.00 99 1022.9
20260831114130 59 24 0.0 0.0 0.00 0.00 0.00 99 1022.6
20260831113625 59 21 0.0 0.0 0.00 0.00 0.00 99 1022.7
20260831113120 59 12 0.0 1.0 0.00 0.00 0.00 99 1022.2
20260831112618 59 14 0.0 0.0 0.00 0.00 0.00 99 1022.2
20260831112113 58 14 0.0 0.0 0.00 0.00 0.00 99 1022.2
20260831111604 58 14 0.0 0.0 0.00 0.00 0.00 99 1022.3
20260831111101 58 31 0.0 1.0 0.00 0.00 0.00 99 1022.1
20260831110555 58 22 0.0 0.0 0.00 0.00 0.00 99 1022.3
20260831110049 58 15 0.0 0.0 0.00 0.00 0.00 99 1022.3
20260831105549 58 15 0.0 0.0 0.00 0.00 0.00 99 1022.3
20260831105043 58 14 0.0 0.0 0.00 0.00 0.00 99 1022.2
20260831104534 58 14 0.0 0.0 0.00 0.00 0.00 99 1022.1
20260831104030 58 10 0.0 0.0 0.00 0.00 0.00 99 1022.0
20260831103525 58 25 0.0 0.0 0.00 0.00 0.00 99 1022.2
20260831103021 58 20 0.0 0.0 0.00 0.00 0.00 99 1022.1
20260831102514 58 13 0.0 0.0 0.00 0.00 0.00 99 1022.1
20260831102004 58 17 0.0 0.0 0.00 0.00 0.00 99 1022.1
20260831101459 58 21 0.0 0.0 0.00 0.00 0.00 99 1022.1
20260831100955 58 14 0.0 0.0 0.00 0.00 0.00 99 1022.1
20260831100451 58 1 0.0 1.0 0.00 0.00 0.00 99 1022.0
20260831095945 58 24 0.0 0.0 0.00 0.00 0.00 99 1022.1
20260831095444 58 19 0.0 0.0 0.00 0.00 0.00 99 1022.2
20260831094939 58 10 0.0 0.0 0.00 0.00 0.00 99 1022.2
20260831094436 58 7 0.0 0.0 0.00 0.00 0.00 99 1022.2
20260831093931 58 11 0.0 0.0 0.00 0.00 0.00 99 1022.0
20260831093426 58 19 0.0 0.0 0.00 0.00 0.00 99 1022.0
20260831092923 58 21 0.0 0.0 0.00 0.00 0.00 99 1022.2
20260831092418 58 15 0.0 0.0 0.00 0.00 0.00 99 1022.2
20260831091913 58 0 0.0 0.0 0.00 0.00 0.00 99 1022.1
20260831091408 58 345 0.0 0.0 0.00 0.00 0.00 99 1022.0
20260831090904 58 24 0.0 0.0 0.00 0.00 0.00 99 1021.8
20260831090400 58 23 0.0 0.0 0.00 0.00 0.00 99 1022.1
20260831085856 58 17 0.0 0.0 0.00 0.00 0.00 99 1021.9
20260831085351 58 14 0.0 0.0 0.00 0.00 0.00 99 1021.4
20260831084844 58 16 1.0 1.0 0.00 0.00 0.00 99 1021.9
20260831084340 59 17 0.0 1.0 0.00 0.00 0.00 99 1021.7
20260831083837 59 20 0.0 0.0 0.00 0.00 0.00 99 1021.5
20260831083332 59 14 0.0 1.0 0.00 0.00 0.00 99 1021.8
20260831082830 59 14 1.0 1.0 0.00 0.00 0.00 99 1021.7
20260831082325 59 16 1.0 1.0 0.00 0.00 0.00 99 1021.8
20260831081821 59 20 0.0 0.0 0.00 0.00 0.00 99 1021.8
20260831081317 59 18 0.0 0.0 0.00 0.00 0.00 99 1021.7
20260831080812 59 17 0.0 0.0 0.00 0.00 0.00 99 1021.4
20260831080307 60 18 0.0 0.0 0.00 0.00 0.00 99 1021.7
20260831075803 60 21 0.0 0.0 0.00 0.00 0.00 99 1021.4
20260831075258 60 21 0.0 1.0 0.00 0.00 0.00 99 1021.4
20260831074758 60 31 0.0 1.0 0.00 0.00 0.00 99 1021.5
20260831074257 60 12 0.0 0.0 0.00 0.00 0.00 99 1021.2
20260831073753 60 20 0.0 0.0 0.00 0.00 0.00 99 1021.5
20260831073252 60 14 0.0 0.0 0.00 0.00 0.00 99 1021.4
20260831072747 60 19 0.0 0.0 0.00 0.00 0.00 99 1021.1
20260831072243 60 17 0.0 0.0 0.00 0.00 0.00 99 1021.2
20260831071744 60 16 1.0 1.0 0.00 0.00 0.00 99 1021.3
20260831071239 61 14 0.0 0.0 0.00 0.00 0.00 99 1021.5
20260831070738 61 351 0.0 0.0 0.00 0.00 0.00 99 1021.5
20260831070232 62 23 0.0 0.0 0.00 0.00 0.00 98 1021.3
20260831065731 62 15 0.0 0.0 0.00 0.00 0.00 98 1021.5
20260831065230 62 21 0.0 0.0 0.00 0.00 0.00 97 1021.2
20260831064725 62 42 0.0 1.0 0.00 0.00 0.00 97 1021.4
20260831064220 63 32 1.0 1.0 0.00 0.00 0.00 97 1021.5
20260831063716 63 25 0.0 1.0 0.00 0.00 0.00 95 1021.7
20260831063211 64 15 0.0 0.0 0.00 0.00 0.00 96 1021.5
20260831062711 63 10 0.0 1.0 0.00 0.00 0.00 95 1021.5
20260831062206 63 26 0.0 0.0 0.00 0.00 0.00 96 1021.8
20260831061704 63 51 1.0 1.0 0.00 0.00 0.00 95 1021.9
20260831061200 64 35 1.0 1.0 0.00 0.00 0.00 95 1021.8
20260831060655 64 7 0.0 0.0 0.00 0.00 0.00 96 1022.0
20260831060155 64 22 0.0 0.0 0.00 0.00 0.00 95 1021.7
20260831055654 64 20 0.0 0.0 0.00 0.00 0.00 95 1021.7
20260831055149 64 22 0.0 0.0 0.00 0.00 0.00 95 1022.0
20260831054649 64 1 0.0 0.0 0.00 0.00 0.00 94 1021.9
20260831054144 64 8 0.0 1.0 0.00 0.00 0.00 95 1022.0
20260831053638 64 27 0.0 1.0 0.00 0.00 0.00 94 1021.9
20260831053137 64 94 1.0 2.0 0.00 0.00 0.00 95 1022.0
20260831052636 64 15 0.0 0.0 0.00 0.00 0.00 95 1022.0
20260831052136 64 34 0.0 0.0 0.00 0.00 0.00 95 1022.1
20260831051634 64 36 1.0 1.0 0.00 0.00 0.00 95 1021.9
20260831051133 64 358 1.0 1.0 0.00 0.00 0.00 95 1022.1
20260831050627 64 8 0.0 0.0 0.00 0.00 0.00 96 1022.0
20260831050127 64 347 1.0 1.0 0.00 0.00 0.00 96 1021.9
20260831045626 64 343 0.0 1.0 0.00 0.00 0.00 96 1022.0
20260831045121 64 352 0.0 1.0 0.00 0.00 0.00 97 1022.3
20260831044616 64 15 0.0 0.0 0.00 0.00 0.00 97 1022.0
20260831044106 64 350 1.0 1.0 0.00 0.00 0.00 97 1022.0
20260831043602 64 30 0.0 1.0 0.00 0.00 0.00 98 1022.1
20260831043057 64 31 0.0 1.0 0.00 0.00 0.00 98 1021.9
20260831042556 64 18 0.0 0.0 0.00 0.00 0.00 98 1022.0
20260831042051 64 30 0.0 0.0 0.00 0.00 0.00 98 1022.0
20260831041546 64 18 0.0 0.0 0.00 0.00 0.00 98 1022.1
20260831041045 64 350 0.0 0.0 0.00 0.00 0.00 98 1022.2
20260831040540 64 23 0.0 0.0 0.00 0.00 0.00 98 1022.0
20260831040039 64 2 0.0 0.0 0.00 0.00 0.00 97 1022.1
20260831035532 64 11 0.0 0.0 0.00 0.00 0.00 96 1021.8
20260831035027 64 18 0.0 0.0 0.00 0.00 0.00 96 1022.1
20260831034526 64 18 0.0 0.0 0.00 0.00 0.00 96 1022.2
20260831034022 64 19 0.0 0.0 0.00 0.00 0.00 95 1022.1
20260831033518 65 25 0.0 0.0 0.00 0.00 0.00 95 1021.8
20260831033013 65 15 0.0 0.0 0.00 0.00 0.00 94 1022.0
20260831032512 65 19 0.0 1.0 0.00 0.00 0.00 94 1021.9
20260831032008 65 10 1.0 1.0 0.00 0.00 0.00 94 1021.9
20260831031507 65 21 0.0 1.0 0.00 0.00 0.00 94 1021.9
20260831031007 65 13 0.0 0.0 0.00 0.00 0.00 94 1021.9
20260831030506 65 2 1.0 1.0 0.00 0.00 0.00 93 1022.1
20260831030005 65 4 0.0 0.0 0.00 0.00 0.00 93 1022.2
20260831025504 65 20 0.0 0.0 0.00 0.00 0.00 94 1021.9
20260831024959 66 316 2.0 2.0 0.00 0.00 0.00 93 1022.1
20260831024454 66 357 1.0 1.0 0.00 0.00 0.00 93 1021.9
20260831023948 66 19 0.0 0.0 0.00 0.00 0.00 93 1022.0
20260831023446 66 15 0.0 0.0 0.00 0.00 0.00 93 1021.9
20260831022942 66 13 0.0 0.0 0.00 0.00 0.00 92 1022.2
20260831022441 66 21 0.0 0.0 0.00 0.00 0.00 92 1022.3
20260831021936 66 289 1.0 1.0 0.00 0.00 0.00 93 1022.1
20260831021435 66 38 1.0 1.0 0.00 0.00 0.00 93 1022.0
20260831020931 66 21 0.0 1.0 0.00 0.00 0.00 93 1021.9
20260831020430 66 14 0.0 0.0 0.00 0.00 0.00 92 1022.1
20260831015925 66 28 0.0 0.0 0.00 0.00 0.00 92 1022.1
20260831015422 66 68 1.0 2.0 0.00 0.00 0.00 92 1022.0
20260831014916 66 61 2.0 3.0 0.00 0.00 0.00 92 1021.9
20260831014411 66 13 1.0 1.0 0.00 0.00 0.00 92 1021.9
20260831013907 66 61 2.0 3.0 0.00 0.00 0.00 92 1021.8
20260831013402 66 34 0.0 0.0 0.00 0.00 0.00 94 1021.9
20260831012856 66 107 0.0 0.0 0.00 0.00 0.00 95 1021.9
20260831012351 65 27 0.0 0.0 0.00 0.00 0.00 94 1021.9